Location: Saint-Hippolyte
(43.6394°N, 4.7559°E)
Time: 15:43:56
(UTC+00:00)

ATLAS 2AS CENTAUR R/B - Pass Details

Date: 24 October 2020
Orbit: 939 x 1273 km, 63.7° (Epoch: 23 November)

Event Time Altitude Azimuth Distance (km) Brightness Sun altitude
Rises 18:16:04 0° 319° (NW) 4,196 6.4 -17.5°
Reaches altitude 10° 18:19:46 10° 334° (NNW) 3,187 5.5 -18.2°
Maximum altitude 18:25:27 22° 22° (NNE) 2,339 4.3 -19.2°
Enters shadow 18:27:53 19° 48° (NE) 2,473 4.2 -19.6°
